Location: Nairn
(57.5833°N, 3.8667°W)
Time: 22:05:23
(UTC+00:00)

Tiros 1 - Pass Details

Date: 25 September 2022
Orbit: 629 x 662 km, 48.4° (Epoch: 08 December)

Event Time Altitude Azimuth Distance (km) Brightness Sun altitude
Exits shadow 03:18:25 17° 158° (SSE) 1,631 9.0 -21.9°
Maximum altitude 03:18:38 17° 155° (SSE) 1,628 9.1 -21.8°
Drops below altitude 10° 03:21:41 10° 114° (ESE) 2,051 10.1 -21.5°
Sets 03:24:41 0° 95° (E) 2,956 11.3 -21.2°
